Location: Dehesa de la Cepeda
(40.6574°N, 4.3013°W)
Time: 02:20:06
(UTC+00:00)

Courier 1B - Pass Details

Date: 04 August 2021
Orbit: 963 x 1209 km, 28.3° (Epoch: 17 September)

Event Time Altitude Azimuth Distance (km) Brightness Sun altitude
Rises 23:31:08 0° 257° (WSW) 4,066 10.8 -31.1°
Enters shadow 23:33:34 - 245° (WSW) 3,514 10.3 -31.2°
Reaches altitude 10° 23:36:27 10° 227° (SW) 3,052 - -31.4°
Maximum altitude 23:38:47 12° 209° (SSW) 2,905 - -31.5°
Drops below altitude 10° 23:41:05 10° 190° (S) 2,997 - -31.5°
Sets 23:46:10 0° 160° (SSE) 3,885 - -31.7°
